Weather History for Soldotna, AK

Change the Weather History Date:

Thursday, August 21, 2014

  Actual Average Record
Temperature  
Mean Temperature 52 °F -  
Max Temperature 66 °F 61 °F 86 °F (1977)
Min Temperature 39 °F 45 °F 33 °F (1974)
Degree Days  
Heating Degree Days 12    
Growing Degree Days 2 (Base 50)    
Moisture  
Dew Point 47 °F    
Average Humidity 79    
Maximum Humidity 93    
Minimum Humidity 56    
Precipitation  
Precipitation 0.00 in - - ()
Sea Level Pressure  
Sea Level Pressure 30.16 in    
Wind  
Wind Speed 3 mph (WNW)    
Max Wind Speed 12 mph    
Max Gust Speed -    
Visibility 8 miles    
Events      
Averages and records for this station are not official NWS values.
T = Trace of Precipitation, MM = Missing Value Source: NWS Daily Summary

Daily Weather History Graph

Daily Weather History Graph

Search for Another Location

Airport:

Trip Planner

Search our weather history database for the weather conditions in past years. The results will help you decide how hot, cold, wet, or windy it might be!

Date:

Astronomy

Aug. 21, 2014 Rise Set
Actual Time 6:31 AM AKDT 9:41 PM AKDT
Civil Twilight 5:41 AM AKDT 10:30 PM AKDT
Nautical Twilight 4:31 AM AKDT 11:39 PM AKDT
Astronomical Twilight 2:39 AM AKDT 1:34 AM AKDT
Moon 2:43 AM AKDT (8/21) 7:38 PM AKDT (8/21)
Length of Visible Light 16h 48m
Length of Day
15h 09m
Waning Crescent, 12% of the Moon is Illuminated
Aug 21
Waning Crescent
Aug 25
New
Sep 2
First Quarter
Sep 8
Full
Sep 15
Last Quarter

Hourly Weather History & Observations

Time (AKDT) Temp. Windchill Dew Point Humidity Pressure Visibility Wind Dir Wind Speed Gust Speed Precip Events Conditions
12:16 AM 48.2 °F - 46.4 °F 93% 30.13 in 3.0 mi West 3.5 mph - N/A   Overcast
12:36 AM 48.2 °F - 46.4 °F 93% 30.14 in 1.0 mi West 3.5 mph - N/A   Overcast
12:56 AM 48.2 °F - 46.4 °F 93% 30.14 in 0.2 mi Calm Calm - N/A   Overcast
1:16 AM 48.2 °F - 46.4 °F 93% 30.14 in 0.5 mi Calm Calm - N/A   Overcast
1:36 AM 46.4 °F - 44.6 °F 93% 30.14 in 0.2 mi Calm Calm - N/A   Overcast
1:56 AM 46.4 °F - 44.6 °F 93% 30.14 in 0.2 mi Calm Calm - N/A   Overcast
2:16 AM 46.4 °F - 44.6 °F 93% 30.15 in 0.2 mi Calm Calm - N/A   Overcast
2:36 AM 46.4 °F 45.2 °F 44.6 °F 93% 30.14 in 0.5 mi ESE 3.5 mph - N/A   Overcast
2:56 AM 44.6 °F 43.1 °F 42.8 °F 93% 30.15 in 0.2 mi East 3.5 mph - N/A   Overcast
3:16 AM 44.6 °F - 42.8 °F 93% 30.15 in 0.2 mi Calm Calm - N/A   Overcast
3:56 AM 42.8 °F 41.1 °F 39.2 °F 87% 30.15 in 10.0 mi East 3.5 mph - N/A   Clear
4:16 AM 42.8 °F - 39.2 °F 87% 30.15 in 10.0 mi Calm Calm - N/A   Clear
4:36 AM 42.8 °F 41.1 °F 39.2 °F 87% 30.15 in 10.0 mi East 3.5 mph - N/A   Clear
4:56 AM 42.8 °F 41.1 °F 39.2 °F 87% 30.16 in 9.0 mi East 3.5 mph - N/A   Clear
5:16 AM 42.8 °F - 39.2 °F 87% 30.16 in 2.0 mi Calm Calm - N/A   Mostly Cloudy
5:36 AM 41.0 °F - 37.4 °F 87% 30.16 in 7.0 mi Calm Calm - N/A   Partly Cloudy
5:56 AM 39.2 °F - 37.4 °F 93% 30.16 in 9.0 mi Calm Calm - N/A   Scattered Clouds
6:16 AM 39.2 °F - 37.4 °F 93% 30.17 in 0.2 mi Calm Calm - N/A   Overcast
6:36 AM 39.2 °F - 37.4 °F 93% 30.17 in 1.5 mi Calm Calm - N/A   Mostly Cloudy
6:56 AM 39.2 °F 37.0 °F 37.4 °F 93% 30.17 in 0.2 mi East 3.5 mph - N/A   Overcast
7:16 AM 39.2 °F 37.0 °F 37.4 °F 93% 30.17 in 3.0 mi East 3.5 mph - N/A   Scattered Clouds
7:36 AM 41.0 °F 38.0 °F 39.2 °F 93% 30.17 in 10.0 mi East 4.6 mph - N/A   Clear
7:56 AM 42.8 °F 41.1 °F 39.2 °F 87% 30.17 in 10.0 mi ENE 3.5 mph - N/A   Clear
8:16 AM 42.8 °F 41.1 °F 41.0 °F 93% 30.17 in 10.0 mi East 3.5 mph - N/A   Clear
8:36 AM 44.6 °F 43.1 °F 42.8 °F 93% 30.17 in 10.0 mi East 3.5 mph - N/A   Clear
8:56 AM 46.4 °F - 42.8 °F 87% 30.17 in 10.0 mi Calm Calm - N/A   Clear
9:16 AM 48.2 °F - 44.6 °F 87% 30.17 in 10.0 mi Calm Calm - N/A   Clear
9:36 AM 50.0 °F - 46.4 °F 87% 30.17 in 10.0 mi East 3.5 mph - N/A   Clear
9:56 AM 51.8 °F - 48.2 °F 88% 30.17 in 10.0 mi Calm Calm - N/A   Clear
10:16 AM 53.6 °F - 48.2 °F 82% 30.18 in 10.0 mi Calm Calm - N/A   Clear
10:36 AM 55.4 °F - 48.2 °F 77% 30.18 in 10.0 mi Calm Calm - N/A   Clear
10:56 AM 57.2 °F - 50.0 °F 77% 30.18 in 10.0 mi Calm Calm - N/A   Clear
11:16 AM 59.0 °F - 51.8 °F 77% 30.18 in 10.0 mi Calm Calm - N/A   Clear
11:36 AM 59.0 °F - 51.8 °F 77% 30.18 in 10.0 mi West 3.5 mph - N/A   Clear
11:56 AM 60.8 °F - 51.8 °F 72% 30.18 in 10.0 mi West 4.6 mph - N/A   Clear
12:16 PM 60.8 °F - 51.8 °F 72% 30.17 in 10.0 mi NW 4.6 mph - N/A   Clear
12:36 PM 62.6 °F - 51.8 °F 68% 30.17 in 10.0 mi WNW 3.5 mph - N/A   Clear
12:56 PM 62.6 °F - 51.8 °F 68% 30.17 in 10.0 mi West 3.5 mph - N/A   Clear
1:16 PM 64.4 °F - 53.6 °F 68% 30.17 in 10.0 mi West 3.5 mph - N/A   Clear
1:36 PM 64.4 °F - 53.6 °F 68% 30.17 in 10.0 mi NW 3.5 mph - N/A   Clear
1:56 PM 64.4 °F - 53.6 °F 68% 30.17 in 10.0 mi NNW 4.6 mph - N/A   Clear
2:16 PM 64.4 °F - 51.8 °F 64% 30.17 in 10.0 mi NW 4.6 mph - N/A   Clear
2:36 PM 64.4 °F - 53.6 °F 68% 30.16 in 10.0 mi WSW 8.1 mph - N/A   Clear
2:56 PM 66.2 °F - 53.6 °F 64% 30.16 in 10.0 mi West 8.1 mph - N/A   Clear
3:16 PM 66.2 °F - 51.8 °F 60% 30.16 in 10.0 mi West 8.1 mph - N/A   Clear
3:36 PM 66.2 °F - 51.8 °F 60% 30.16 in 10.0 mi NW 8.1 mph - N/A   Clear
3:56 PM 66.2 °F - 51.8 °F 60% 30.15 in 10.0 mi WNW 8.1 mph - N/A   Clear
4:16 PM 66.2 °F - 51.8 °F 60% 30.14 in 10.0 mi WNW 6.9 mph - N/A   Clear
4:36 PM 66.2 °F - 50.0 °F 56% 30.14 in 10.0 mi West 6.9 mph - N/A   Clear
4:56 PM 66.2 °F - 51.8 °F 60% 30.14 in 10.0 mi West 10.4 mph - N/A   Clear
5:16 PM 66.2 °F - 51.8 °F 60% 30.14 in 10.0 mi West 10.4 mph - N/A   Clear
5:36 PM 64.4 °F - 51.8 °F 64% 30.14 in 10.0 mi West 10.4 mph - N/A   Clear
5:56 PM 62.6 °F - 51.8 °F 68% 30.14 in 10.0 mi West 10.4 mph - N/A   Partly Cloudy
6:16 PM 62.6 °F - 51.8 °F 68% 30.14 in 10.0 mi West 11.5 mph - N/A   Partly Cloudy
6:36 PM 62.6 °F - 51.8 °F 68% 30.14 in 10.0 mi West 9.2 mph - N/A   Clear
6:56 PM 62.6 °F - 51.8 °F 68% 30.14 in 10.0 mi West 6.9 mph - N/A   Partly Cloudy
7:16 PM 62.6 °F - 51.8 °F 68% 30.14 in 10.0 mi West 5.8 mph - N/A   Partly Cloudy
7:36 PM 62.6 °F - 50.0 °F 63% 30.14 in 10.0 mi West 6.9 mph - N/A   Scattered Clouds
7:56 PM 62.6 °F - 51.8 °F 68% 30.14 in 10.0 mi NW 4.6 mph - N/A   Partly Cloudy
8:16 PM 62.6 °F - 50.0 °F 63% 30.14 in 10.0 mi West 8.1 mph - N/A   Partly Cloudy
8:36 PM 60.8 °F - 51.8 °F 72% 30.14 in 10.0 mi West 6.9 mph - N/A   Mostly Cloudy
8:56 PM 60.8 °F - 51.8 °F 72% 30.14 in 10.0 mi WNW 6.9 mph - N/A   Mostly Cloudy
9:16 PM 59.0 °F - 51.8 °F 77% 30.15 in 10.0 mi West 6.9 mph - N/A   Mostly Cloudy
9:36 PM 57.2 °F - 51.8 °F 82% 30.15 in 10.0 mi NW 4.6 mph - N/A   Scattered Clouds
9:56 PM 57.2 °F - 51.8 °F 82% 30.16 in 10.0 mi WNW 5.8 mph - N/A   Mostly Cloudy
10:16 PM 55.4 °F - 50.0 °F 82% 30.16 in 10.0 mi West 4.6 mph - N/A   Overcast
10:36 PM 55.4 °F - 50.0 °F 82% 30.16 in 10.0 mi Calm Calm - N/A   Overcast
10:56 PM 55.4 °F - 48.2 °F 77% 30.16 in 10.0 mi Calm Calm - N/A   Mostly Cloudy
11:16 PM 53.6 °F - 50.0 °F 88% 30.16 in 10.0 mi Calm Calm - N/A   Mostly Cloudy
11:36 PM 53.6 °F - 48.2 °F 82% 30.16 in 10.0 mi Calm Calm - N/A   Partly Cloudy
11:56 PM 51.8 °F - 48.2 °F 88% 30.16 in 10.0 mi Calm Calm - N/A   Clear